K9UO Weather Reports


time (UTC)temp
C
wind
direction
speed
KPH
gust
KPH
rain 1hr
cm
rain 24hr
cm
rain mn
cm
humidity
%
barometer
mb
20260509144531 15 360 11.3 24.1 0.00 0.13 0.00 1 1006.7
20260509143018 15 360 12.9 19.3 0.00 0.13 0.00 1 1006.6
20260509141513 14 235 12.9 19.3 0.00 0.13 0.00 1 1006.5
20260509140008 13 251 9.7 20.9 0.00 0.13 0.00 1 1006.5
20260509134504 13 247 6.4 19.3 0.00 0.13 0.00 1 1006.5
20260509133105 13 246 4.8 14.5 0.00 0.13 0.00 1 1006.5
20260509131559 13 235 8.0 14.5 0.00 0.13 0.00 1 1006.4
20260509130100 13 360 11.3 14.5 0.00 0.13 0.00 1 1006.7
20260509124546 13 360 11.3 16.1 0.00 0.13 0.00 1 1006.8
20260509123047 13 213 8.0 16.1 0.00 0.13 0.00 1 1006.9
20260509121538 13 360 6.4 12.9 0.00 0.13 0.00 1 1006.9
20260509120035 13 360 4.8 11.3 0.00 0.13 0.00 1 1006.8
20260509114529 13 212 6.4 12.9 0.00 0.13 0.00 1 1006.7
20260509113025 12 230 8.0 16.1 0.00 0.13 0.00 1 1006.7
20260509111520 12 213 8.0 16.1 0.00 0.13 0.00 1 1006.7
20260509110020 12 222 9.7 14.5 0.00 0.13 0.00 1 1006.7
20260509104512 12 360 8.0 12.9 0.00 0.13 0.00 1 1006.7
20260509103009 12 221 6.4 14.5 0.00 0.13 0.00 1 1006.6
20260509101506 12 217 8.0 12.9 0.00 0.13 0.00 1 1006.4
20260509100059 12 216 9.7 14.5 0.00 0.13 0.00 1 1006.5
20260509094554 12 208 4.8 12.9 0.00 0.13 0.00 1 1006.3
20260509093050 12 221 8.0 11.3 0.00 0.13 0.00 1 1006.4
20260509091546 12 360 6.4 12.9 0.00 0.13 0.00 1 1006.5
20260509090046 12 214 4.8 9.7 0.00 0.13 0.00 1 1006.4
20260509084541 12 200 4.8 9.7 0.00 0.13 0.00 1 1006.5
20260509083039 12 219 3.2 12.9 0.00 0.13 0.00 1 1006.6
20260509081536 12 219 8.0 11.3 0.00 0.13 0.00 1 1006.8
20260509080035 12 210 8.0 12.9 0.00 0.13 0.00 1 1006.9
20260509074523 12 219 8.0 12.9 0.00 0.13 0.00 1 1006.9
20260509073019 12 360 6.4 11.3 0.00 0.13 0.00 1 1007.2
20260509071514 12 360 6.4 12.9 0.00 0.13 0.00 1 1007.3
20260509070012 12 219 8.0 12.9 0.00 0.13 0.00 1 1007.3
20260509064505 12 248 6.4 14.5 0.00 0.13 0.00 1 1007.6
20260509063100 12 211 8.0 16.1 0.00 0.13 0.00 1 1007.7
20260509061614 12 215 8.0 12.9 0.00 0.13 0.00 1 1007.8
20260509060109 12 360 8.0 12.9 0.00 0.13 0.00 1 1007.9
20260509054550 12 211 8.0 16.1 0.00 0.13 0.00 1 1008.2
20260509053042 12 360 9.7 16.1 0.00 0.13 0.00 1 1008.2
20260509051538 12 360 8.0 12.9 0.00 0.13 0.00 1 1008.2
20260509050052 12 360 8.0 16.1 0.00 0.13 0.00 1 1008.3
20260509044528 12 231 6.4 11.3 0.00 0.13 0.00 1 1008.2
20260509043025 12 360 4.8 14.5 0.00 0.13 0.00 1 1008.2
20260509041520 12 216 6.4 11.3 0.00 0.13 0.00 1 1008.2
20260509040016 12 360 8.0 16.1 0.00 0.13 0.00 1 1008.3
20260509034511 12 200 4.8 14.5 0.00 0.13 0.13 1 1008.4
20260509033007 12 219 9.7 14.5 0.00 0.13 0.13 1 1008.5
20260509031503 12 216 6.4 16.1 0.00 0.13 0.13 1 1008.7
20260509030007 12 202 4.8 12.9 0.00 0.13 0.13 1 1008.6
20260509024501 12 213 4.8 11.3 0.00 0.13 0.13 1 1008.8
20260509023001 12 213 3.2 12.9 0.00 0.13 0.13 1 1008.9
20260509021502 12 196 6.4 12.9 0.00 0.13 0.13 1 1008.8
20260509020001 12 219 4.8 12.9 0.00 0.13 0.13 1 1008.8
20260509014601 12 217 4.8 12.9 0.03 0.13 0.13 1 1008.7
20260509013101 12 360 6.4 11.3 0.03 0.13 0.13 1 1008.7
20260509011551 12 360 6.4 12.9 0.03 0.13 0.13 1 1008.7
20260509010049 12 211 8.0 12.9 0.03 0.13 0.13 1 1008.8
20260509004543 12 209 1.6 6.4 0.00 0.10 0.10 1 1008.7
20260509003050 12 360 3.2 8.0 0.00 0.10 0.10 1 1008.8
20260509001534 12 360 3.2 9.7 0.00 0.10 0.10 1 1008.9
20260509000037 12 211 1.6 6.4 0.00 0.10 0.10 1 1008.9
20260508234534 12 210 1.6 4.8 0.03 0.10 0.10 1 1008.8
20260508233020 12 360 1.6 4.8 0.05 0.10 0.10 1 1008.8
20260508231516 12 209 3.2 9.7 0.05 0.10 0.10 1 1008.8
20260508230012 12 214 6.4 11.3 0.05 0.10 0.10 1 1008.8
20260508224507 12 360 1.6 9.7 0.03 0.08 0.08 1 1009.2
20260508223007 11 232 3.2 4.8 0.00 0.05 0.05 1 1009.2
20260508221506 12 331 0.0 6.4 0.03 0.05 0.05 1 1009.1
20260508220001 11 10 4.8 9.7 0.03 0.05 0.05 1 1009.0
20260508214608 12 5 1.6 9.7 0.05 0.05 0.05 1 1009.1
20260508213053 12 259 3.2 9.7 0.05 0.05 0.05 1 1009.4
20260508211549 13 13 3.2 8.0 0.03 0.03 0.03 1 1009.3
20260508210045 14 19 1.6 9.7 0.03 0.03 0.03 1 1009.2
20260508204542 15 360 4.8 12.9 0.00 0.00 0.00 20 1009.4
20260508203039 15 254 4.8 12.9 0.00 0.00 0.00 26 1009.3
20260508201637 15 306 1.6 9.7 0.00 0.00 0.00 29 1009.4
20260508200037 15 288 4.8 16.1 0.00 0.00 0.00 43 1009.5
20260508194607 15 360 8.0 19.3 0.00 0.00 0.00 49 1009.4
20260508193036 16 217 14.5 20.9 0.00 0.00 0.00 55 1009.4
20260508191535 17 194 14.5 30.6 0.00 0.00 0.00 55 1009.2
20260508190033 18 360 16.1 25.7 0.00 0.00 0.00 52 1009.3
20260508184534 18 360 9.7 19.3 0.00 0.00 0.00 51 1009.5
20260508183030 18 192 17.7 25.7 0.00 0.00 0.00 50 1009.7
20260508181540 18 360 16.1 33.8 0.00 0.00 0.00 50 1009.7
20260508180026 18 360 12.9 24.1 0.00 0.00 0.00 51 1009.9
20260508174522 17 219 14.5 29.0 0.00 0.00 0.00 51 1010.2
20260508173033 17 221 9.7 29.0 0.00 0.00 0.00 52 1010.5
20260508171524 17 216 14.5 22.5 0.00 0.00 0.00 52 1010.7
20260508170014 17 360 12.9 24.1 0.00 0.00 0.00 51 1011.0
20260508164516 16 239 8.0 16.1 0.00 0.00 0.00 53 1011.2
20260508163010 16 360 9.7 19.3 0.00 0.00 0.00 53 1011.6
20260508161504 16 242 11.3 20.9 0.00 0.00 0.00 53 1012.1
20260508160002 15 360 4.8 14.5 0.00 0.00 0.00 53 1012.2
20260508154601 15 296 11.3 19.3 0.00 0.00 0.00 53 1012.5
20260508153057 15 236 9.7 17.7 0.00 0.00 0.00 53 1012.7
20260508151605 13 238 8.0 16.1 0.00 0.00 0.00 52 1012.6
20260508150050 13 360 9.7 16.1 0.00 0.00 0.00 50 1012.7